Location: Unspecified
(0.0000°N, 0.0000°E)
Time: 18:50:38
(UTC+00:00)

Vanguard 1 Rocket - Pass Details

Date: 15 December 2017
Orbit: 653 x 4224 km, 34.3° (Epoch: 23 June)

Event Time Altitude Azimuth Distance (km) Brightness Sun altitude
Rises 17:56:13 0° 321° (NW) 4,921 11.4 -0.2°
Reaches altitude 10° 18:03:50 10° 355° (N) 4,889 10.9 -1.9°
Maximum altitude 18:07:11 11° 9° (N) 5,193 10.9 -2.7°
Drops below altitude 10° 18:10:59 10° 22° (NNE) 5,686 11.0 -3.6°
Enters shadow 18:21:14 - 48° (NE) 7,353 11.4 -5.9°
Sets 18:23:57 0° 53° (NE) 7,809 - -6.6°
